Miscellaneous Local Product
Issued by NWS Hastings, NE

Home | Current Version | Previous Version | Graphics & Text | Print | Product List | Glossary On
Versions: 1 2 3 4 5 6 7 8 9 10 11 12 13 14 15 16 17 18 19 20 21 22 23 24 25 26 27 28 29 30 31 32 33 34 35 36 37 38 39 40 41 42 43 44 45 46 47 48 49 50
974
AXUS43 KGID 232102
MISGRI

GID CWA HOURLY WEATHER ROUNDUP
NATIONAL WEATHER SERVICE HASTINGS NE
400 PM CDT WED MAY 23 2018

NOTE: "FAIR" INDICATES FEW OR NO CLOUDS BELOW 12,000 FEET WITH NO
SIGNIFICANT WEATHER AND/OR OBSTRUCTIONS TO VISIBILITY.

...SOUTH CENTRAL NEBRASKA...

CITY           SKY/WX    TMP DP  RH WIND       PRES   REMARKS
GRAND ISLAND   MOSUNNY   88  62  41 S18G35    29.94F
KEARNEY        CLOUDY    85  61  44 S22G30    29.95S
HASTINGS       MOSUNNY   86  61  42 S15G28    29.96F
ORD            PTSUNNY   83  65  54 SE8       29.91F
YORK           MOSUNNY   90  57  33 S18G26    29.96F
AURORA         MOSUNNY   89  56  32 S22G29    29.95F
LEXINGTON      PTSUNNY   85  61  44 S22       29.94F
HOLDREGE       PTSUNNY   84  60  44 S23G31    29.96F
HEBRON         MOSUNNY   91  54  27 S15G22    29.97F

...NEBRASKA PANHANDLE...

CITY           SKY/WX    TMP DP  RH WIND       PRES   REMARKS
CHADRON        SUNNY     78  57  48 E6        29.90S
ALLIANCE       SUNNY     78  58  49 SE9       29.92F
SCOTTSBLUFF    SUNNY     79  56  45 SE14      29.93S
SIDNEY         MOSUNNY   81  55  40 S10       29.95F

...WESTERN AND NORTH CENTRAL NEBRASKA...

CITY           SKY/WX    TMP DP  RH WIND       PRES   REMARKS
VALENTINE      CLOUDY    84  57  39 S20G30    29.90F
AINSWORTH      PTSUNNY   82  60  46 S18G25    29.92F
ONEILL         MOSUNNY   84  63  48 S12       29.95S
BROKEN BOW     PTSUNNY   84  63  49 S16       29.95F
IMPERIAL       PTSUNNY   88  52  29 S20G29    29.92F
NORTH PLATTE   PTSUNNY   84  62  47 S13G22    29.94F
MCCOOK         MOSUNNY   85  57  38 S14G28    29.93F

...EASTERN NEBRASKA...

CITY           SKY/WX    TMP DP  RH WIND       PRES   REMARKS
NORFOLK        MOSUNNY   90  58  33 S18G30    29.93S
SO SIOUX CITY  SUNNY     89  65  44 S21G29    29.97F HX  91
TEKAMAH        SUNNY     89  65  44 SE20      29.97F HX  91
COLUMBUS       MOSUNNY   91  57  31 S18       29.95F
ALBION         PTSUNNY   87  60  40 S16G23    29.94F
OMAHA EPPLEY   MOSUNNY   92  61  35 S16G31    29.98F HX  92
OFFUTT AFB     SUNNY     91  61  37 SE16G22   29.97F HX  90
MILLARD        MOSUNNY   90  65  43 SE15G22   29.97F HX  91
LINCOLN        MOSUNNY   90  59  35 S17G28    29.96F
NEBRASKA CITY  MOSUNNY   90  61  37 S13       29.99F HX  90
BEATRICE       MOSUNNY   91  63  38 S13G21    29.98F HX  92
FALLS CITY     MOSUNNY   91  61  36 S15G25    29.99F HX  91

...NORTHERN KANSAS...

CITY           SKY/WX    TMP DP  RH WIND       PRES   REMARKS
GOODLAND       PTSUNNY   82  56  40 S23G31    29.94F
HILL CITY      MOSUNNY   87  62  43 S12G25    29.94F
NORTON         PTCLDY    90  61  37 SE14G20   29.94F
PHILLIPSBURG   PTSUNNY   81  64  57 SE14G29   29.94F
SMITH CENTER     N/A     84  57  39 S15G23    29.97F
HAYS           LGT RAIN  76  63  64 E6        29.96F
RUSSELL        CLOUDY    87  65  47 SE23      29.96F
CONCORDIA      CLOUDY    89  57  33 S17G26    29.97F
SALINA         CLOUDY    92  62  36 SE18      29.97F HX  92
TOPEKA         CLOUDY    89  68  49 SE13G21   30.02S HX  93



USA.gov is the U.S. government's official web portal to all federal, state and local government web resources and services.